Smyrna, TN

10:15 AM CDT on October 18, 2017 (GMT -0500)
Smyrna

Weather History for KMQY - August, 2014

Change the Weather History Date:

Wednesday, August 20, 2014

  Actual Average Record
Temperature  
Mean Temperature 82 °F -  
Max Temperature 95 °F 85 °F 100 °F (2005)
Min Temperature 70 °F 67 °F 55 °F (2012)
Cooling Degree Days 17    
Growing Degree Days 32 (Base 50)    
Moisture  
Dew Point 71 °F    
Average Humidity 85    
Maximum Humidity 97    
Minimum Humidity 52    
Precipitation  
Precipitation 1.12 in - - ()
Sea Level Pressure  
Sea Level Pressure 30.02 in    
Wind  
Wind Speed 5 mph (SSE)    
Max Wind Speed 16 mph    
Max Gust Speed 22 mph    
Visibility 8 miles    
Events Fog , Rain , Thunderstorm    
Averages and records for this station are not official NWS values.
T = Trace of Precipitation, MM = Missing Value Source: NWS Daily Summary

Daily Weather History Graph

Daily Weather History Graph

Search for Another Location

Airport or City:

Trip Planner

Search our weather history database for the weather conditions in past years. The results will help you decide how hot, cold, wet, or windy it might be!

Date:

Astronomy

Aug. 20, 2014 Rise Set
Actual Time 6:08 AM CDT 7:29 PM CDT
Civil Twilight 5:41 AM CDT 7:56 PM CDT
Nautical Twilight 5:09 AM CDT 8:28 PM CDT
Astronomical Twilight 4:35 AM CDT 9:02 PM CDT
Moon 1:51 AM CDT (8/20) 4:11 PM CDT (8/20)
Length of Visible Light 14h 15m
Length of Day
13h 21m
Waning Crescent, 20% of the Moon is Illuminated
Aug 20
Waning Crescent
Aug 25
New
Sep 2
First Quarter
Sep 8
Full
Sep 15
Last Quarter

Hourly Weather History & Observations

Time (CDT) Temp. Heat Index Dew Point Humidity Pressure Visibility Wind Dir Wind Speed Gust Speed Precip Events Conditions
12:56 AM 75.9 °F - 72.9 °F 90% 29.94 in 10.0 mi Calm Calm - N/A   Clear
1:56 AM 75.9 °F - 72.9 °F 90% 29.93 in 10.0 mi Calm Calm - N/A   Clear
2:56 AM 72.9 °F - 72.0 °F 97% 29.93 in 10.0 mi Calm Calm - N/A   Clear
3:56 AM 72.9 °F - 72.0 °F 97% 29.94 in 10.0 mi SSE 4.6 mph - N/A   Clear
4:56 AM 72.9 °F - 72.0 °F 97% 29.94 in 10.0 mi Calm Calm - N/A   Clear
5:56 AM 72.9 °F - 70.9 °F 93% 29.96 in 10.0 mi Calm Calm - N/A   Clear
6:56 AM 73.9 °F - 72.9 °F 96% 29.99 in 10.0 mi South 3.5 mph - N/A   Clear
7:56 AM 79.0 °F - 74.8 °F 87% 29.99 in 10.0 mi Calm Calm - N/A   Partly Cloudy
8:56 AM 83.8 °F 92.5 °F 75.9 °F 77% 30.00 in 10.0 mi WSW 8.1 mph - N/A   Partly Cloudy
9:56 AM 86.0 °F 96.0 °F 75.9 °F 72% 30.02 in 10.0 mi Variable 3.5 mph - N/A   Partly Cloudy
10:56 AM 90.0 °F 101.3 °F 75.9 °F 63% 30.02 in 10.0 mi SW 5.8 mph - N/A   Partly Cloudy
11:56 AM 93.9 °F 106.9 °F 75.9 °F 56% 30.00 in 10.0 mi Variable 5.8 mph - N/A   Partly Cloudy
12:56 PM 93.9 °F 106.9 °F 75.9 °F 56% 30.01 in 10.0 mi WSW 10.4 mph 17.3 mph N/A   Scattered Clouds
1:56 PM 93.9 °F 104.0 °F 73.9 °F 52% 29.98 in 10.0 mi WSW 12.7 mph 21.9 mph N/A   Scattered Clouds
2:56 PM 86.0 °F 91.1 °F 70.9 °F 60% 30.01 in 10.0 mi East 16.1 mph - N/A   Clear
3:45 PM 75.2 °F - 66.2 °F 73% 30.04 in 10.0 mi ESE 10.4 mph - 0.00 in Rain , Thunderstorm Thunderstorms and Rain
3:56 PM 74.8 °F - 68.0 °F 79% 30.06 in 3.0 mi ENE 16.1 mph 20.7 mph 0.05 in Rain , Thunderstorm Thunderstorms and Rain
3:58 PM 73.4 °F - 69.8 °F 88% 30.06 in 1.5 mi NE 15.0 mph 20.7 mph 0.04 in Rain , Thunderstorm Thunderstorms and Rain
4:00 PM 73.4 °F - 69.8 °F 88% 30.07 in 1.0 mi NE 13.8 mph 20.7 mph 0.08 in Rain , Thunderstorm Thunderstorms and Rain
4:03 PM 73.4 °F - 69.8 °F 88% 30.08 in 0.5 mi Variable 5.8 mph - 0.17 in Fog , Rain , Thunderstorm Thunderstorms and Rain
4:12 PM 71.6 °F - 69.8 °F 94% 30.06 in 0.2 mi Variable 5.8 mph - 0.59 in Fog , Rain , Thunderstorm Thunderstorms and Rain
4:23 PM 71.6 °F - 69.8 °F 94% 30.00 in 0.5 mi SSE 15.0 mph 18.4 mph 0.87 in Fog , Rain , Thunderstorm Thunderstorms and Rain
4:32 PM 71.6 °F - 69.8 °F 94% 29.98 in 3.0 mi SSE 15.0 mph 20.7 mph 1.02 in Rain , Thunderstorm Thunderstorms and Rain
4:41 PM 71.6 °F - 69.8 °F 94% 29.99 in 10.0 mi SSE 5.8 mph - 1.03 in Rain Light Rain
4:56 PM 72.9 °F - 70.0 °F 91% 30.01 in 10.0 mi SSW 5.8 mph - 1.03 in   Scattered Clouds
5:56 PM 74.8 °F - 68.9 °F 82% 30.05 in 10.0 mi North 5.8 mph - 0.00 in   Mostly Cloudy
6:56 PM 73.9 °F - 70.0 °F 87% 30.10 in 10.0 mi NNW 4.6 mph - N/A Thunderstorm Thunderstorm
7:56 PM 72.9 °F - 70.9 °F 93% 30.10 in 10.0 mi SSE 10.4 mph - 0.04 in Thunderstorm Thunderstorm
8:06 PM 73.4 °F - 71.6 °F 94% 30.08 in 10.0 mi Variable 5.8 mph - N/A   Clear
8:56 PM 72.0 °F - 70.0 °F 93% 30.10 in 10.0 mi East 5.8 mph - N/A   Clear
9:56 PM 72.0 °F - 70.0 °F 93% 30.12 in 10.0 mi South 5.8 mph - N/A   Partly Cloudy
10:56 PM 72.0 °F - 70.0 °F 93% 30.13 in 10.0 mi Calm Calm - N/A   Clear
11:56 PM 70.9 °F - 68.9 °F 93% 30.12 in 10.0 mi Calm Calm - N/A   Clear